TimeCDT,TemperatureF,Dew PointF,Humidity,Sea Level PressureIn,VisibilityMPH,Wind Direction,Wind SpeedMPH,Gust SpeedMPH,PrecipitationIn,Events,Conditions,WindDirDegrees,DateUTC
12:54 AM,55.9,48.9,77,30.07,10.0,SE,5.8,-,N/A,,Clear,130,2013-09-27 05:54:00
1:54 AM,55.9,48.0,75,30.08,10.0,SE,6.9,-,N/A,,Clear,140,2013-09-27 06:54:00
2:54 AM,55.0,46.9,74,30.08,10.0,SSE,4.6,-,N/A,,Clear,160,2013-09-27 07:54:00
3:54 AM,55.0,48.0,77,30.09,10.0,SE,5.8,-,N/A,,Clear,140,2013-09-27 08:54:00
4:54 AM,53.1,46.9,80,30.09,10.0,ESE,4.6,-,N/A,,Clear,110,2013-09-27 09:54:00
5:54 AM,51.1,46.0,83,30.09,10.0,East,4.6,-,N/A,,Clear,100,2013-09-27 10:54:00
6:54 AM,51.1,46.9,86,30.10,10.0,ESE,5.8,-,N/A,,Clear,110,2013-09-27 11:54:00
7:27 AM,53.6,48.2,82,30.10,7.0,South,5.8,-,N/A,,Partly Cloudy,170,2013-09-27 12:27:00
7:54 AM,55.9,48.9,77,30.10,10.0,SSE,5.8,-,N/A,,Partly Cloudy,150,2013-09-27 12:54:00
8:54 AM,62.1,50.0,65,30.10,10.0,South,8.1,-,N/A,,Clear,180,2013-09-27 13:54:00
9:54 AM,66.0,52.0,60,30.09,10.0,SSE,12.7,-,N/A,,Clear,160,2013-09-27 14:54:00
10:54 AM,72.0,54.0,53,30.09,10.0,South,10.4,-,N/A,,Clear,180,2013-09-27 15:54:00
11:54 AM,75.9,55.0,48,30.08,10.0,South,15.0,-,N/A,,Clear,180,2013-09-27 16:54:00
12:54 PM,79.0,55.0,44,30.06,10.0,South,17.3,-,N/A,,Clear,180,2013-09-27 17:54:00
1:54 PM,80.1,55.0,42,30.04,10.0,South,18.4,29.9,N/A,,Clear,170,2013-09-27 18:54:00
2:54 PM,80.1,54.0,40,30.01,10.0,South,15.0,-,N/A,,Clear,170,2013-09-27 19:54:00
3:54 PM,80.1,53.1,39,29.99,10.0,SSE,15.0,23.0,N/A,,Clear,150,2013-09-27 20:54:00
4:54 PM,75.9,48.9,38,29.99,10.0,SSE,15.0,23.0,N/A,,Clear,160,2013-09-27 21:54:00
5:54 PM,75.0,48.9,40,29.99,10.0,SSE,16.1,21.9,N/A,,Clear,160,2013-09-27 22:54:00
6:54 PM,72.0,48.0,43,30.01,10.0,SSE,9.2,-,N/A,,Clear,160,2013-09-27 23:54:00
7:54 PM,66.9,48.0,51,30.01,10.0,SSE,4.6,-,N/A,,Clear,150,2013-09-28 00:54:00
8:54 PM,68.0,48.9,50,30.02,10.0,SSE,8.1,-,N/A,,Clear,150,2013-09-28 01:54:00
9:54 PM,66.9,51.1,57,30.01,10.0,SSE,10.4,-,N/A,,Clear,150,2013-09-28 02:54:00
10:54 PM,64.0,53.1,67,30.01,10.0,SE,9.2,-,N/A,,Clear,140,2013-09-28 03:54:00
11:54 PM,63.0,52.0,67,30.00,10.0,SE,8.1,-,N/A,,Clear,140,2013-09-28 04:54:00